| time (UTC) | temp F | wind direction | speed MPH | gust MPH | rain 1hr in | rain 24hr in | rain mn in | humidity % | barometer mb |
| 20260504222517 | 78 | 183 | 7.0 | 23.0 | 0.00 | 0.00 | 0.00 | 30 | 995.1 |
| 20260504222014 | 79 | 239 | 11.0 | 27.0 | 0.00 | 0.00 | 0.00 | 29 | 995.1 |
| 20260504221529 | 79 | 190 | 10.0 | 27.0 | 0.00 | 0.00 | 0.00 | 29 | 995.2 |
| 20260504221012 | 79 | 232 | 10.0 | 24.0 | 0.00 | 0.00 | 0.00 | 28 | 995.1 |
| 20260504220514 | 79 | 231 | 10.0 | 24.0 | 0.00 | 0.00 | 0.00 | 29 | 995.1 |
| 20260504220031 | 80 | 235 | 11.0 | 20.0 | 0.00 | 0.00 | 0.00 | 28 | 995.3 |
| 20260504215515 | 80 | 232 | 8.0 | 20.0 | 0.00 | 0.00 | 0.00 | 28 | 995.4 |
| 20260504215019 | 80 | 212 | 8.0 | 18.0 | 0.00 | 0.00 | 0.00 | 28 | 995.3 |
| 20260504214533 | 80 | 240 | 6.0 | 18.0 | 0.00 | 0.00 | 0.00 | 29 | 995.5 |
| 20260504214018 | 80 | 210 | 6.0 | 18.0 | 0.00 | 0.00 | 0.00 | 28 | 995.4 |
| 20260504213515 | 80 | 140 | 5.0 | 18.0 | 0.00 | 0.00 | 0.00 | 29 | 995.5 |
| 20260504213029 | 80 | 207 | 7.0 | 22.0 | 0.00 | 0.00 | 0.00 | 28 | 995.5 |
| 20260504212515 | 79 | 223 | 7.0 | 22.0 | 0.00 | 0.00 | 0.00 | 29 | 995.5 |
| 20260504212015 | 79 | 279 | 6.0 | 19.0 | 0.00 | 0.00 | 0.00 | 29 | 995.7 |
| 20260504211539 | 78 | 242 | 8.0 | 21.0 | 0.00 | 0.00 | 0.00 | 30 | 995.7 |
| 20260504211015 | 79 | 296 | 8.0 | 21.0 | 0.00 | 0.00 | 0.00 | 30 | 995.7 |
| 20260504210515 | 79 | 225 | 9.0 | 19.0 | 0.00 | 0.00 | 0.00 | 29 | 995.8 |
| 20260504210036 | 78 | 267 | 6.0 | 18.0 | 0.00 | 0.00 | 0.00 | 29 | 995.8 |
| 20260504205513 | 79 | 252 | 10.0 | 22.0 | 0.00 | 0.00 | 0.00 | 29 | 995.9 |
| 20260504205014 | 79 | 226 | 7.0 | 23.0 | 0.00 | 0.00 | 0.00 | 29 | 995.9 |
| 20260504204533 | 79 | 171 | 8.0 | 23.0 | 0.00 | 0.00 | 0.00 | 29 | 996.0 |
| 20260504204015 | 79 | 246 | 7.0 | 25.0 | 0.00 | 0.00 | 0.00 | 29 | 995.9 |
| 20260504203516 | 79 | 232 | 8.0 | 25.0 | 0.00 | 0.00 | 0.00 | 29 | 996.0 |
| 20260504203031 | 79 | 219 | 11.0 | 24.0 | 0.00 | 0.00 | 0.00 | 30 | 996.2 |
| 20260504202516 | 78 | 238 | 7.0 | 23.0 | 0.00 | 0.00 | 0.00 | 30 | 996.2 |
| 20260504202016 | 78 | 284 | 8.0 | 22.0 | 0.00 | 0.00 | 0.00 | 29 | 996.2 |
| 20260504201531 | 78 | 229 | 8.0 | 18.0 | 0.00 | 0.00 | 0.00 | 28 | 996.4 |
| 20260504201015 | 78 | 200 | 9.0 | 26.0 | 0.00 | 0.00 | 0.00 | 29 | 996.5 |
| 20260504200515 | 78 | 227 | 11.0 | 26.0 | 0.00 | 0.00 | 0.00 | 28 | 996.4 |
| 20260504200030 | 78 | 254 | 8.0 | 23.0 | 0.00 | 0.00 | 0.00 | 30 | 996.6 |
| 20260504195518 | 78 | 261 | 10.0 | 23.0 | 0.00 | 0.00 | 0.00 | 29 | 996.6 |
| 20260504195014 | 79 | 244 | 10.0 | 23.0 | 0.00 | 0.00 | 0.00 | 28 | 996.5 |
| 20260504194532 | 78 | 212 | 5.0 | 18.0 | 0.00 | 0.00 | 0.00 | 31 | 996.5 |
| 20260504194016 | 78 | 241 | 9.0 | 20.0 | 0.00 | 0.00 | 0.00 | 29 | 996.6 |
| 20260504193513 | 78 | 246 | 9.0 | 20.0 | 0.00 | 0.00 | 0.00 | 31 | 996.6 |
| 20260504193030 | 78 | 207 | 9.0 | 18.0 | 0.00 | 0.00 | 0.00 | 28 | 996.8 |
| 20260504192515 | 78 | 238 | 6.0 | 18.0 | 0.00 | 0.00 | 0.00 | 31 | 996.8 |
| 20260504192014 | 77 | 304 | 7.0 | 20.0 | 0.00 | 0.00 | 0.00 | 29 | 996.8 |
| 20260504191534 | 77 | 171 | 8.0 | 23.0 | 0.00 | 0.00 | 0.00 | 30 | 996.9 |
| 20260504191015 | 77 | 290 | 10.0 | 23.0 | 0.00 | 0.00 | 0.00 | 29 | 996.8 |
| 20260504190515 | 77 | 260 | 9.0 | 20.0 | 0.00 | 0.00 | 0.00 | 29 | 996.9 |
| 20260504190032 | 77 | 224 | 9.0 | 22.0 | 0.00 | 0.00 | 0.00 | 30 | 996.7 |
| 20260504185512 | 76 | 199 | 7.0 | 24.0 | 0.00 | 0.00 | 0.00 | 31 | 996.9 |
| 20260504185015 | 76 | 239 | 12.0 | 24.0 | 0.00 | 0.00 | 0.00 | 29 | 997.1 |
| 20260504184543 | 76 | 271 | 10.0 | 25.0 | 0.00 | 0.00 | 0.00 | 30 | 997.1 |
| 20260504184015 | 76 | 199 | 10.0 | 25.0 | 0.00 | 0.00 | 0.00 | 30 | 997.0 |
| 20260504183514 | 76 | 261 | 8.0 | 22.0 | 0.00 | 0.00 | 0.00 | 30 | 997.2 |
| 20260504183032 | 76 | 244 | 9.0 | 22.0 | 0.00 | 0.00 | 0.00 | 30 | 997.3 |
| 20260504182511 | 76 | 216 | 6.0 | 22.0 | 0.00 | 0.00 | 0.00 | 31 | 997.3 |
| 20260504182014 | 76 | 189 | 7.0 | 24.0 | 0.00 | 0.00 | 0.00 | 30 | 997.3 |
| 20260504181534 | 76 | 250 | 12.0 | 24.0 | 0.00 | 0.00 | 0.00 | 29 | 997.2 |
| 20260504181016 | 76 | 222 | 11.0 | 25.0 | 0.00 | 0.00 | 0.00 | 30 | 997.3 |
| 20260504180517 | 76 | 235 | 12.0 | 25.0 | 0.00 | 0.00 | 0.00 | 30 | 997.3 |
| 20260504180030 | 75 | 260 | 9.0 | 23.0 | 0.00 | 0.00 | 0.00 | 32 | 997.3 |
| 20260504175516 | 75 | 193 | 10.0 | 22.0 | 0.00 | 0.00 | 0.00 | 33 | 997.5 |
| 20260504175020 | 75 | 269 | 10.0 | 22.0 | 0.00 | 0.00 | 0.00 | 29 | 997.4 |
| 20260504174530 | 75 | 176 | 10.0 | 24.0 | 0.00 | 0.00 | 0.00 | 30 | 997.6 |
| 20260504174013 | 75 | 249 | 12.0 | 25.0 | 0.00 | 0.00 | 0.00 | 32 | 997.5 |
| 20260504173514 | 75 | 204 | 12.0 | 25.0 | 0.00 | 0.00 | 0.00 | 30 | 997.7 |
| 20260504173030 | 75 | 213 | 11.0 | 24.0 | 0.00 | 0.00 | 0.00 | 28 | 997.6 |
| 20260504172514 | 75 | 238 | 9.0 | 20.0 | 0.00 | 0.00 | 0.00 | 29 | 997.7 |
| 20260504172015 | 75 | 227 | 7.0 | 22.0 | 0.00 | 0.00 | 0.00 | 32 | 998.0 |
| 20260504171530 | 75 | 199 | 8.0 | 22.0 | 0.00 | 0.00 | 0.00 | 30 | 998.1 |
| 20260504171015 | 75 | 223 | 10.0 | 22.0 | 0.00 | 0.00 | 0.00 | 29 | 998.2 |
| 20260504170515 | 75 | 216 | 8.0 | 18.0 | 0.00 | 0.00 | 0.00 | 31 | 998.2 |
| 20260504151014 | 72 | 195 | 8.0 | 17.0 | 0.00 | 0.00 | 0.00 | 33 | 999.7 |
| 20260504150515 | 71 | 265 | 5.0 | 14.0 | 0.00 | 0.00 | 0.00 | 36 | 999.6 |
| 20260504141015 | 66 | 167 | 4.0 | 19.0 | 0.00 | 0.00 | 0.00 | 46 | 1000.4 |
| 20260504140517 | 66 | 191 | 8.0 | 19.0 | 0.00 | 0.00 | 0.00 | 44 | 1000.5 |
| 20260504130514 | 57 | 176 | 6.0 | 15.0 | 0.00 | 0.00 | 0.00 | 55 | 1001.1 |
| 20260504110515 | 43 | 175 | 3.0 | 6.0 | 0.00 | 0.00 | 0.00 | 81 | 1001.1 |
| 20260504100511 | 44 | 0 | 0.0 | 3.0 | 0.00 | 0.00 | 0.00 | 80 | 1001.2 |
| 20260504081532 | 45 | 0 | 0.0 | 2.0 | 0.00 | 0.00 | 0.00 | 81 | 1002.3 |
| 20260504081015 | 45 | 0 | 0.0 | 2.0 | 0.00 | 0.00 | 0.00 | 81 | 1002.4 |
| 20260504080513 | 45 | 0 | 0.0 | 2.0 | 0.00 | 0.00 | 0.00 | 81 | 1002.5 |
| 20260504050511 | 51 | 234 | 1.0 | 7.0 | 0.00 | 0.00 | 0.00 | 73 | 1003.6 |
| 20260504045513 | 51 | 223 | 1.0 | 4.0 | 0.00 | 0.00 | 0.00 | 72 | 1003.7 |
| 20260504045011 | 52 | 0 | 0.0 | 2.0 | 0.00 | 0.00 | 0.00 | 71 | 1003.6 |
| 20260504044530 | 52 | 0 | 0.0 | 2.0 | 0.00 | 0.00 | 0.00 | 70 | 1003.6 |
| 20260504044014 | 52 | 0 | 0.0 | 3.0 | 0.00 | 0.00 | 0.00 | 70 | 1003.6 |
| 20260504043514 | 52 | 0 | 0.0 | 3.0 | 0.00 | 0.00 | 0.00 | 69 | 1003.6 |
| 20260504043030 | 53 | 189 | 0.0 | 4.0 | 0.00 | 0.00 | 0.00 | 69 | 1003.6 |
| 20260504042513 | 53 | 216 | 1.0 | 4.0 | 0.00 | 0.00 | 0.00 | 69 | 1003.6 |
| 20260504042013 | 53 | 209 | 0.0 | 4.0 | 0.00 | 0.00 | 0.00 | 69 | 1003.6 |
| 20260504041533 | 53 | 194 | 0.0 | 2.0 | 0.00 | 0.00 | 0.00 | 69 | 1003.7 |
| 20260504041013 | 53 | 202 | 1.0 | 3.0 | 0.00 | 0.00 | 0.00 | 69 | 1003.7 |
| 20260504040514 | 52 | 207 | 0.0 | 3.0 | 0.00 | 0.00 | 0.00 | 69 | 1003.7 |
| 20260504040030 | 52 | 212 | 1.0 | 3.0 | 0.00 | 0.00 | 0.00 | 70 | 1003.8 |
| 20260504035513 | 52 | 201 | 1.0 | 3.0 | 0.00 | 0.00 | 0.00 | 70 | 1003.7 |
| 20260504035014 | 52 | 194 | 0.0 | 2.0 | 0.00 | 0.00 | 0.00 | 70 | 1003.9 |
| 20260504034529 | 52 | 206 | 0.0 | 2.0 | 0.00 | 0.00 | 0.00 | 70 | 1003.8 |
| 20260504034010 | 52 | 0 | 0.0 | 2.0 | 0.00 | 0.00 | 0.00 | 70 | 1003.9 |
| 20260504033510 | 52 | 0 | 0.0 | 2.0 | 0.00 | 0.00 | 0.00 | 69 | 1004.0 |
| 20260504033031 | 53 | 0 | 0.0 | 2.0 | 0.00 | 0.00 | 0.00 | 69 | 1004.1 |
| 20260504032513 | 53 | 188 | 0.0 | 2.0 | 0.00 | 0.00 | 0.00 | 69 | 1004.0 |
| 20260504032011 | 53 | 0 | 0.0 | 0.0 | 0.00 | 0.00 | 0.00 | 69 | 1004.1 |
| 20260504031532 | 53 | 0 | 0.0 | 2.0 | 0.00 | 0.00 | 0.00 | 69 | 1004.0 |
| 20260504031011 | 53 | 0 | 0.0 | 2.0 | 0.00 | 0.00 | 0.00 | 69 | 1004.1 |
| 20260504030511 | 53 | 0 | 0.0 | 2.0 | 0.00 | 0.00 | 0.00 | 68 | 1004.0 |
| 20260504030028 | 53 | 0 | 0.0 | 3.0 | 0.00 | 0.00 | 0.00 | 68 | 1004.0 |
| 20260504025514 | 53 | 0 | 0.0 | 3.0 | 0.00 | 0.00 | 0.00 | 68 | 1004.0 |
| 20260504025011 | 53 | 0 | 0.0 | 2.0 | 0.00 | 0.00 | 0.00 | 68 | 1003.9 |
| 20260504024530 | 53 | 0 | 0.0 | 2.0 | 0.00 | 0.00 | 0.00 | 67 | 1003.9 |
| 20260504024012 | 53 | 201 | 0.0 | 2.0 | 0.00 | 0.00 | 0.00 | 67 | 1003.9 |
| 20260504023510 | 54 | 0 | 0.0 | 1.0 | 0.00 | 0.00 | 0.00 | 66 | 1004.0 |
| 20260504023028 | 54 | 0 | 0.0 | 0.0 | 0.00 | 0.00 | 0.00 | 66 | 1003.9 |
| 20260504022514 | 54 | 0 | 0.0 | 0.0 | 0.00 | 0.00 | 0.00 | 65 | 1003.9 |
| 20260504022011 | 55 | 0 | 0.0 | 0.0 | 0.00 | 0.00 | 0.00 | 64 | 1003.8 |
| 20260504021532 | 55 | 0 | 0.0 | 0.0 | 0.00 | 0.00 | 0.00 | 64 | 1003.8 |
| 20260504021012 | 55 | 0 | 0.0 | 0.0 | 0.00 | 0.00 | 0.00 | 63 | 1003.8 |
| 20260504020510 | 56 | 0 | 0.0 | 0.0 | 0.00 | 0.00 | 0.00 | 62 | 1003.8 |
| 20260504020028 | 56 | 0 | 0.0 | 0.0 | 0.00 | 0.00 | 0.00 | 62 | 1003.8 |
| 20260504015514 | 57 | 0 | 0.0 | 0.0 | 0.00 | 0.00 | 0.00 | 61 | 1003.7 |
| 20260504015015 | 57 | 0 | 0.0 | 0.0 | 0.00 | 0.00 | 0.00 | 60 | 1003.7 |
| 20260504014534 | 58 | 0 | 0.0 | 1.0 | 0.00 | 0.00 | 0.00 | 59 | 1003.7 |
| 20260504014014 | 58 | 0 | 0.0 | 1.0 | 0.00 | 0.00 | 0.00 | 57 | 1003.7 |
| 20260504013513 | 59 | 0 | 0.0 | 1.0 | 0.00 | 0.00 | 0.00 | 56 | 1003.8 |
| 20260504013035 | 60 | 0 | 0.0 | 0.0 | 0.00 | 0.00 | 0.00 | 54 | 1003.8 |
| 20260504012511 | 61 | 0 | 0.0 | 1.0 | 0.00 | 0.00 | 0.00 | 53 | 1003.7 |
| 20260504012011 | 61 | 0 | 0.0 | 2.0 | 0.00 | 0.00 | 0.00 | 52 | 1003.7 |
| 20260504011532 | 62 | 0 | 0.0 | 3.0 | 0.00 | 0.00 | 0.00 | 51 | 1003.8 |
| 20260504011011 | 62 | 0 | 0.0 | 5.0 | 0.00 | 0.00 | 0.00 | 49 | 1003.7 |
| 20260504010510 | 63 | 246 | 0.0 | 6.0 | 0.00 | 0.00 | 0.00 | 49 | 1003.7 |
| 20260504010027 | 63 | 253 | 2.0 | 6.0 | 0.00 | 0.00 | 0.00 | 48 | 1003.6 |
| 20260504005513 | 64 | 197 | 1.0 | 7.0 | 0.00 | 0.00 | 0.00 | 48 | 1003.7 |
| 20260504005014 | 64 | 226 | 1.0 | 7.0 | 0.00 | 0.00 | 0.00 | 47 | 1003.6 |
| 20260504004530 | 64 | 216 | 2.0 | 7.0 | 0.00 | 0.00 | 0.00 | 46 | 1003.6 |
| 20260504004011 | 65 | 213 | 2.0 | 6.0 | 0.00 | 0.00 | 0.00 | 46 | 1003.6 |
| 20260504003511 | 65 | 257 | 2.0 | 11.0 | 0.00 | 0.00 | 0.00 | 46 | 1003.5 |
| 20260504003032 | 65 | 191 | 3.0 | 14.0 | 0.00 | 0.00 | 0.00 | 45 | 1003.5 |
| 20260504002514 | 66 | 244 | 3.0 | 14.0 | 0.00 | 0.00 | 0.00 | 45 | 1003.4 |
| 20260504002012 | 66 | 211 | 5.0 | 13.0 | 0.00 | 0.00 | 0.00 | 44 | 1003.3 |
| 20260504001531 | 66 | 263 | 5.0 | 14.0 | 0.00 | 0.00 | 0.00 | 44 | 1003.4 |
| 20260504001014 | 66 | 226 | 5.0 | 14.0 | 0.00 | 0.00 | 0.00 | 44 | 1003.4 |
| 20260504000513 | 66 | 238 | 7.0 | 14.0 | 0.00 | 0.00 | 0.00 | 44 | 1003.4 |
| 20260504000030 | 67 | 205 | 7.0 | 14.0 | 0.00 | 0.00 | 0.00 | 43 | 1003.3 |
| 20260503235515 | 67 | 227 | 5.0 | 14.0 | 0.00 | 0.00 | 0.00 | 43 | 1003.2 |
| 20260503235013 | 67 | 199 | 6.0 | 14.0 | 0.00 | 0.00 | 0.00 | 44 | 1003.4 |
| 20260503234546 | 67 | 216 | 6.0 | 13.0 | 0.00 | 0.00 | 0.00 | 43 | 1003.3 |
| 20260503234014 | 67 | 213 | 7.0 | 13.0 | 0.00 | 0.00 | 0.00 | 43 | 1003.2 |
| 20260503233514 | 68 | 260 | 6.0 | 13.0 | 0.00 | 0.00 | 0.00 | 42 | 1003.4 |
| 20260503233037 | 68 | 223 | 6.0 | 14.0 | 0.00 | 0.00 | 0.00 | 42 | 1003.4 |
| 20260503232514 | 68 | 208 | 7.0 | 14.0 | 0.00 | 0.00 | 0.00 | 42 | 1003.4 |
| 20260503232014 | 68 | 243 | 5.0 | 14.0 | 0.00 | 0.00 | 0.00 | 42 | 1003.4 |
| 20260503231533 | 68 | 259 | 4.0 | 14.0 | 0.00 | 0.00 | 0.00 | 42 | 1003.5 |
| 20260503231014 | 68 | 221 | 5.0 | 14.0 | 0.00 | 0.00 | 0.00 | 42 | 1003.5 |
| 20260503230515 | 68 | 258 | 5.0 | 16.0 | 0.00 | 0.00 | 0.00 | 42 | 1003.6 |
| 20260503230030 | 68 | 207 | 6.0 | 16.0 | 0.00 | 0.00 | 0.00 | 42 | 1003.7 |
| 20260503225513 | 68 | 260 | 6.0 | 16.0 | 0.00 | 0.00 | 0.00 | 42 | 1003.7 |
| 20260503225014 | 68 | 207 | 7.0 | 17.0 | 0.00 | 0.00 | 0.00 | 43 | 1003.8 |
| 20260503224532 | 68 | 188 | 6.0 | 18.0 | 0.00 | 0.00 | 0.00 | 42 | 1003.7 |
| 20260503224015 | 68 | 255 | 8.0 | 18.0 | 0.00 | 0.00 | 0.00 | 43 | 1003.8 |
| 20260503223515 | 68 | 207 | 7.0 | 18.0 | 0.00 | 0.00 | 0.00 | 42 | 1003.8 |
| 20260503223032 | 68 | 179 | 7.0 | 19.0 | 0.00 | 0.00 | 0.00 | 43 | 1003.8 |